TimeEDT,TemperatureF,Dew PointF,Humidity,Sea Level PressureIn,VisibilityMPH,Wind Direction,Wind SpeedMPH,Gust SpeedMPH,PrecipitationIn,Events,Conditions,WindDirDegrees,DateUTC
12:56 AM,70.9,68.9,93,30.28,10.0,Calm,Calm,-,N/A,,Clear,0,2013-07-15 04:56:00
1:56 AM,70.0,68.9,96,30.28,10.0,Calm,Calm,-,N/A,,Mostly Cloudy,0,2013-07-15 05:56:00
2:56 AM,70.0,68.9,96,30.27,10.0,Calm,Calm,-,N/A,,Mostly Cloudy,0,2013-07-15 06:56:00
3:56 AM,68.9,68.0,97,30.28,6.0,Calm,Calm,-,N/A,,Overcast,0,2013-07-15 07:56:00
4:56 AM,70.0,68.9,96,30.28,5.0,Calm,Calm,-,N/A,,Overcast,0,2013-07-15 08:56:00
5:56 AM,70.0,68.9,96,30.29,5.0,Calm,Calm,-,N/A,,Overcast,0,2013-07-15 09:56:00
6:18 AM,71.6,69.8,94,30.31,10.0,East,3.5,-,N/A,,Mostly Cloudy,80,2013-07-15 10:18:00
6:56 AM,72.0,70.9,96,30.30,10.0,Calm,Calm,-,N/A,,Mostly Cloudy,0,2013-07-15 10:56:00
7:56 AM,74.8,72.0,91,30.32,10.0,Calm,Calm,-,N/A,,Mostly Cloudy,0,2013-07-15 11:56:00
8:56 AM,77.9,70.9,79,30.32,10.0,NW,3.5,-,N/A,,Scattered Clouds,320,2013-07-15 12:56:00
9:56 AM,81.0,70.0,69,30.31,10.0,NNW,8.1,-,N/A,,Scattered Clouds,340,2013-07-15 13:56:00
10:56 AM,82.9,72.9,71,30.31,10.0,WNW,9.2,-,N/A,,Scattered Clouds,300,2013-07-15 14:56:00
11:56 AM,82.9,70.9,67,30.31,10.0,WNW,8.1,-,N/A,,Scattered Clouds,300,2013-07-15 15:56:00
12:56 PM,84.9,70.9,63,30.30,10.0,WNW,9.2,-,N/A,,Scattered Clouds,300,2013-07-15 16:56:00
1:56 PM,86.0,70.9,60,30.29,10.0,WNW,9.2,-,N/A,,Scattered Clouds,300,2013-07-15 17:56:00
2:56 PM,86.9,70.0,57,30.27,10.0,NNW,9.2,-,N/A,,Scattered Clouds,340,2013-07-15 18:56:00
3:56 PM,86.9,70.9,59,30.27,10.0,WNW,10.4,-,N/A,,Scattered Clouds,300,2013-07-15 19:56:00
4:56 PM,86.9,70.9,59,30.26,10.0,WNW,10.4,16.1,N/A,,Scattered Clouds,300,2013-07-15 20:56:00
5:56 PM,84.9,70.0,61,30.25,10.0,NNW,8.1,-,N/A,,Scattered Clouds,330,2013-07-15 21:56:00
6:56 PM,83.8,70.9,65,30.25,10.0,NNW,8.1,-,N/A,,Partly Cloudy,330,2013-07-15 22:56:00
7:56 PM,81.0,70.0,69,30.25,10.0,NNW,6.9,-,N/A,,Clear,340,2013-07-15 23:56:00
8:56 PM,75.9,66.9,74,30.26,10.0,NNE,4.6,-,N/A,,Clear,30,2013-07-16 00:56:00
9:56 PM,68.9,65.8,90,30.27,10.0,Calm,Calm,-,N/A,,Clear,0,2013-07-16 01:56:00
10:56 PM,66.9,65.8,96,30.28,10.0,NE,3.5,-,N/A,,Clear,40,2013-07-16 02:56:00
11:56 PM,65.8,64.9,97,30.27,8.0,ENE,3.5,-,N/A,,Clear,70,2013-07-16 03:56:00